Language: 


Des rapports , des résumés tant et plus, au choix de chacun....


Données statistiques de la station
Quotidien Rapport Janvier 20, 2018 Unités:  Anglais    Métrique   les deux
« Précédent Jour
Suivant Jour »
Quotidien Hebdomadaire Mensuel Annuel Actuel
  Haut: Bas: Moyen:
Température: TemperatureC °F 1.4 °F 3.9 °F
Pt de rosée: DewpointC °F 1.0 °F 4 °F
Humidité: Humidity % 98 % 98 %
Vitesse du vent: WindSpeedKMH mph 0.0 mph 3 mph
Rafales: WindSpeedGustKMH mph - -
Vent:- - South
Pression: PressurehPa in 996.2 in -
Précipitation: 0.3 in    
Historical Graphs
 
 
Données statistiques pour Janvier 20, 2018
Heure Température Point de rosée Pression Vent Vitesse du vent Refales Humidité Pluie (taux horaire)
TemperatureC °F DewpointC °F PressurehPa in Calm     Humidity % HourlyPrecipMM in
00:01 2.8 °F 3.0 °F 1006.0 in SW 4.7 mph 10.5 mph 98 % 0.5 in
00:06 2.8 °F 3.0 °F 1006.0 in South 5.8 mph 10.5 mph 98 % 0.5 in
00:11 2.9 °F 3.0 °F 1006.0 in SSW 5.8 mph 10.8 mph 98 % 0.5 in
00:16 2.9 °F 3.0 °F 1005.0 in Calm   10.8 mph 98 % 0.5 in
00:21 2.9 °F 3.0 °F 1005.0 in SSW 6.9 mph 10.1 mph 98 % 0.5 in
00:26 3.0 °F 3.0 °F 1005.0 in South 2.6 mph 10.1 mph 98 % 0.3 in
00:31 3.0 °F 3.0 °F 1005.0 in South 4.0 mph 10.1 mph 98 % 0.3 in
00:36 3.0 °F 3.0 °F 1005.0 in SSW 1.8 mph 12.2 mph 98 % 0.3 in
00:41 3.1 °F 3.0 °F 1005.0 in South 4.7 mph 12.2 mph 98 % 0.3 in
00:46 3.1 °F 3.0 °F 1005.0 in SSW 9.0 mph 9.0 mph 98 % 0.3 in
00:51 3.1 °F 3.0 °F 1005.0 in Calm   9.0 mph 98 % 0.5 in
00:56 3.1 °F 3.0 °F 1005.0 in South 6.9 mph 7.9 mph 98 % 0.5 in
01:01 3.1 °F 3.0 °F 1005.0 in South 7.9 mph 10.1 mph 98 % 0.5 in
01:07 3.1 °F 3.0 °F 1005.0 in South 4.3 mph 10.8 mph 98 % 0.5 in
01:12 3.2 °F 3.0 °F 1005.0 in South 6.9 mph 10.8 mph 98 % 0.5 in
01:17 3.2 °F 3.0 °F 1005.0 in South 6.9 mph 10.5 mph 98 % 0.5 in
01:22 3.3 °F 3.0 °F 1005.0 in South 7.6 mph 16.6 mph 98 % 0.3 in
01:27 3.3 °F 3.0 °F 1005.0 in South 9.0 mph 16.6 mph 98 % 0.3 in
01:32 3.3 °F 3.0 °F 1005.0 in South 6.4 mph 10.5 mph 98 % 0.8 in
01:37 3.3 °F 3.0 °F 1005.0 in South 12.6 mph 13.7 mph 98 % 0.8 in
01:42 3.4 °F 3.0 °F 1005.0 in South 8.7 mph 19.5 mph 98 % 0.8 in
01:47 3.4 °F 3.0 °F 1003.9 in SSW 9.7 mph 19.5 mph 98 % 0.8 in
01:52 3.4 °F 3.0 °F 1003.9 in South 4.7 mph 14.0 mph 98 % 0.3 in
01:57 3.4 °F 3.0 °F 1003.9 in SSW 4.7 mph 10.8 mph 98 % 0.3 in
02:02 3.5 °F 4.0 °F 1003.9 in SSW 5.0 mph 12.2 mph 98 % 0.3 in
02:07 3.5 °F 4.0 °F 1003.9 in South 5.0 mph 12.2 mph 98 % 0.3 in
02:12 3.6 °F 4.0 °F 1003.9 in South 8.7 mph 11.1 mph 98 % 0.8 in
02:17 3.5 °F 4.0 °F 1003.9 in SSW 6.1 mph 11.1 mph 98 % 0.8 in
02:22 3.5 °F 4.0 °F 1003.9 in South 6.9 mph 10.1 mph 98 % 0.8 in
02:27 3.5 °F 4.0 °F 1003.9 in SSE 6.4 mph 8.7 mph 98 % 0.8 in
02:32 3.5 °F 4.0 °F 1002.9 in SSW 8.7 mph 8.7 mph 98 % 0.3 in
02:37 3.5 °F 4.0 °F 1002.9 in SSE 6.1 mph 8.7 mph 98 % 0.3 in
02:42 3.5 °F 4.0 °F 1002.9 in South 6.1 mph 10.1 mph 98 % 0.3 in
02:47 3.5 °F 4.0 °F 1002.9 in SSW 6.9 mph 10.1 mph 98 % 0.3 in
02:53 3.5 °F 4.0 °F 1002.9 in South 6.9 mph 9.7 mph 98 % 0.5 in
02:58 3.6 °F 4.0 °F 1002.9 in Calm   10.5 mph 98 % 0.5 in
03:03 3.6 °F 4.0 °F 1002.9 in Calm   10.5 mph 98 % 0.5 in
03:08 3.6 °F 4.0 °F 1002.9 in SSW 7.6 mph 9.3 mph 98 % 0.3 in
03:13 3.6 °F 4.0 °F 1002.9 in South 5.8 mph 9.3 mph 98 % 0.3 in
03:18 3.6 °F 4.0 °F 1001.9 in SSW 10.5 mph 10.5 mph 98 % 0.3 in
03:23 3.7 °F 4.0 °F 1001.9 in SSW 6.1 mph 10.5 mph 98 % 0.3 in
03:28 3.7 °F 4.0 °F 1001.9 in SSW 9.7 mph 10.5 mph 98 % 0.3 in
03:33 3.7 °F 4.0 °F 1001.9 in South 6.1 mph 10.1 mph 98 % 0.3 in
03:38 3.8 °F 4.0 °F 1001.9 in South 9.3 mph 12.6 mph 98 % 0.3 in
03:43 3.8 °F 4.0 °F 1001.9 in SSE 8.7 mph 12.6 mph 98 % 0.3 in
03:48 3.8 °F 4.0 °F 1003.9 in South 9.0 mph 10.5 mph 98 % 0.3 in
03:53 3.9 °F 4.0 °F 1003.9 in South 3.2 mph 10.5 mph 98 % 0.0 in
03:58 3.9 °F 4.0 °F 1003.9 in Calm   9.0 mph 98 % 0.3 in
04:03 3.9 °F 4.0 °F 1001.9 in SSE 4.3 mph 12.2 mph 98 % 0.3 in
04:08 3.9 °F 4.0 °F 1001.9 in Calm   12.2 mph 98 % 0.3 in
04:13 4.0 °F 4.0 °F 1001.9 in South 6.1 mph 8.7 mph 98 % 0.3 in
04:18 4.0 °F 4.0 °F 1001.9 in Calm   8.7 mph 98 % 0.3 in
04:23 4.0 °F 4.0 °F 1001.9 in South 6.4 mph 9.0 mph 98 % 0.3 in
04:28 4.0 °F 4.0 °F 1001.9 in South 3.2 mph 9.7 mph 98 % 0.3 in
04:33 4.0 °F 4.0 °F 1001.9 in South 1.4 mph 9.7 mph 98 % 0.3 in
04:38 4.1 °F 4.0 °F 1001.9 in South 6.1 mph 12.6 mph 98 % 0.3 in
04:39 4.1 °F 4.0 °F 1001.9 in SSE 2.6 mph 12.6 mph 98 % 0.3 in
04:44 4.1 °F 4.0 °F 1001.9 in Calm   12.6 mph 98 % 0.5 in
04:49 4.1 °F 4.0 °F 1001.9 in South 6.9 mph 9.3 mph 98 % 0.5 in
04:54 4.1 °F 4.0 °F 1001.9 in SSE 2.6 mph 9.3 mph 98 % 0.5 in
04:59 4.2 °F 4.0 °F 1000.9 in Calm   9.0 mph 98 % 0.3 in
05:04 4.2 °F 4.0 °F 1000.9 in Calm   7.2 mph 98 % 0.5 in
05:09 4.3 °F 4.0 °F 1000.9 in South 7.6 mph 7.6 mph 98 % 0.5 in
05:14 4.3 °F 4.0 °F 1000.9 in SSE 4.3 mph 7.9 mph 98 % 0.5 in
05:19 4.3 °F 4.0 °F 1000.9 in Calm   7.9 mph 98 % 0.5 in
05:24 4.3 °F 4.0 °F 1000.9 in Calm   9.3 mph 98 % 0.8 in
05:29 4.4 °F 4.0 °F 999.9 in SSE 4.7 mph 9.3 mph 98 % 0.8 in
05:34 4.4 °F 4.0 °F 999.9 in Calm   7.2 mph 98 % 1.3 in
05:39 4.4 °F 4.0 °F 999.9 in South 6.1 mph 6.4 mph 98 % 1.3 in
05:44 4.5 °F 5.0 °F 1000.9 in Calm   6.1 mph 98 % 1.0 in
05:49 4.5 °F 5.0 °F 1000.9 in Calm   6.9 mph 98 % 1.3 in
05:54 4.6 °F 5.0 °F 1000.9 in ESE 4.0 mph 10.5 mph 98 % 1.3 in
05:59 4.6 °F 5.0 °F 999.9 in SSE 4.7 mph 10.5 mph 98 % 1.3 in
06:04 4.7 °F 5.0 °F 999.9 in Calm   10.1 mph 98 % 1.0 in
06:09 4.7 °F 5.0 °F 999.9 in Calm   9.7 mph 98 % 1.0 in
06:14 4.7 °F 5.0 °F 999.9 in SSE 1.8 mph 10.1 mph 98 % 1.3 in
06:19 4.7 °F 5.0 °F 999.9 in Calm   10.1 mph 98 % 1.0 in
06:25 4.8 °F 5.0 °F 999.9 in Calm   5.5 mph 98 % 1.0 in
06:30 4.8 °F 5.0 °F 998.9 in Calm   6.9 mph 98 % 1.0 in
06:35 4.9 °F 5.0 °F 998.9 in ESE 4.3 mph 6.9 mph 98 % 0.5 in
06:40 4.9 °F 5.0 °F 998.9 in South 6.4 mph 10.5 mph 98 % 0.5 in
06:45 5.0 °F 5.0 °F 997.9 in Calm   10.5 mph 98 % 0.8 in
06:50 5.0 °F 5.0 °F 997.9 in East 3.2 mph 6.4 mph 98 % 0.5 in
06:55 5.0 °F 5.0 °F 997.9 in ESE 2.1 mph 6.4 mph 98 % 0.5 in
07:00 5.0 °F 5.0 °F 998.9 in ESE 2.1 mph 6.4 mph 98 % 0.5 in
07:05 5.0 °F 5.0 °F 998.9 in Calm   6.4 mph 98 % 0.5 in
07:10 5.1 °F 5.0 °F 998.9 in ESE 4.7 mph 9.0 mph 98 % 0.3 in
07:15 5.1 °F 5.0 °F 998.9 in ESE 5.0 mph 9.7 mph 98 % 0.5 in
07:20 5.1 °F 5.0 °F 998.9 in SSE 5.0 mph 9.7 mph 98 % 0.5 in
07:25 5.1 °F 5.0 °F 998.9 in Calm   9.3 mph 98 % 0.5 in
07:30 5.2 °F 5.0 °F 997.9 in Calm   7.6 mph 98 % 0.5 in
07:35 5.2 °F 5.0 °F 997.9 in Calm   7.6 mph 98 % 0.5 in
07:40 5.3 °F 6.0 °F 997.9 in ESE 5.5 mph 7.6 mph 98 % 0.8 in
07:45 5.3 °F 6.0 °F 997.9 in ESE 4.7 mph 6.1 mph 98 % 0.5 in
07:50 5.4 °F 6.0 °F 997.9 in East 7.9 mph 7.9 mph 98 % 0.5 in
07:55 5.4 °F 6.0 °F 997.9 in East 2.1 mph 7.9 mph 98 % 0.5 in
07:56 5.4 °F 6.0 °F 997.9 in Calm   7.9 mph 98 % 0.5 in
08:01 5.4 °F 6.0 °F 997.9 in ENE 5.5 mph 6.9 mph 98 % 0.5 in
08:06 5.3 °F 6.0 °F 997.9 in Calm   6.9 mph 98 % 0.5 in
08:11 5.3 °F 6.0 °F 997.9 in ENE 3.2 mph 5.5 mph 98 % 0.5 in
08:16 5.3 °F 6.0 °F 997.9 in East 6.9 mph 7.2 mph 98 % 0.5 in
08:22 5.3 °F 6.0 °F 997.9 in Calm   7.2 mph 98 % 0.5 in
08:27 5.3 °F 6.0 °F 997.9 in Calm   9.0 mph 98 % 0.5 in
08:32 5.3 °F 6.0 °F 996.8 in East 5.5 mph 9.0 mph 98 % 0.5 in
08:37 5.4 °F 6.0 °F 996.8 in East 4.3 mph 6.4 mph 98 % 1.0 in
08:42 5.3 °F 6.0 °F 996.8 in NE 8.7 mph 9.0 mph 98 % 0.8 in
08:47 5.3 °F 6.0 °F 996.8 in ENE 4.0 mph 9.0 mph 98 % 0.8 in
08:52 5.4 °F 6.0 °F 996.8 in NE 4.0 mph 9.0 mph 98 % 0.8 in
08:57 5.4 °F 6.0 °F 996.8 in ESE 1.8 mph 9.0 mph 98 % 0.8 in
09:02 5.4 °F 6.0 °F 996.8 in East 5.8 mph 7.6 mph 98 % 0.8 in
09:07 5.5 °F 6.0 °F 996.8 in Calm   7.6 mph 98 % 0.3 in
09:12 5.6 °F 6.0 °F 996.8 in East 5.5 mph 7.6 mph 98 % 0.3 in
09:17 5.7 °F 6.0 °F 996.8 in Calm   7.6 mph 98 % 0.3 in
09:22 5.6 °F 6.0 °F 996.8 in Calm   8.7 mph 98 % 0.3 in
09:27 5.6 °F 6.0 °F 996.8 in ENE 2.1 mph 8.7 mph 98 % 0.3 in
09:32 5.5 °F 6.0 °F 996.2 in ENE 5.0 mph 6.9 mph 98 % 0.3 in
09:37 5.5 °F 6.0 °F 996.2 in Calm   6.9 mph 98 % 0.0 in
09:42 5.5 °F 6.0 °F 996.2 in Calm   5.5 mph 98 % 0.3 in
09:47 5.5 °F 6.0 °F 996.8 in Calm     98 % 0.3 in
09:52 5.5 °F 6.0 °F 996.8 in Calm   6.1 mph 98 % 0.3 in
09:58 5.4 °F 6.0 °F 996.8 in Calm   6.1 mph 98 % 0.3 in
10:03 5.4 °F 6.0 °F 996.8 in East 5.0 mph 5.0 mph 98 % 0.3 in
10:08 5.4 °F 6.0 °F 996.8 in Calm   5.0 mph 98 % 0.3 in
10:13 5.4 °F 6.0 °F 996.8 in Calm   5.0 mph 98 % 0.3 in
10:18 5.4 °F 6.0 °F 996.8 in Calm   5.5 mph 98 % 0.3 in
10:23 5.3 °F 6.0 °F 996.8 in Calm   5.8 mph 98 % 0.3 in
10:28 5.3 °F 6.0 °F 996.8 in Calm   5.8 mph 98 % 0.3 in
10:33 5.3 °F 6.0 °F 996.8 in Calm   5.5 mph 98 % 0.3 in
10:38 5.3 °F 6.0 °F 996.8 in Calm     98 % 0.3 in
10:43 5.3 °F 6.0 °F 996.8 in Calm     98 % 0.0 in
10:48 5.3 °F 6.0 °F 997.9 in Calm     98 % 0.0 in
10:53 5.3 °F 6.0 °F 997.9 in Calm     98 % 0.0 in
10:58 5.3 °F 6.0 °F 997.9 in Calm     98 % 0.0 in
11:03 5.2 °F 5.0 °F 997.9 in Calm     98 % 0.3 in
11:08 5.2 °F 5.0 °F 997.9 in Calm     98 % 0.3 in
11:13 5.1 °F 5.0 °F 997.9 in Calm   5.0 mph 98 % 0.3 in
11:18 5.1 °F 5.0 °F 997.9 in Calm   5.0 mph 98 % 0.3 in
11:23 5.0 °F 5.0 °F 997.9 in Calm     98 % 0.3 in
11:28 5.0 °F 5.0 °F 997.9 in Calm     98 % 0.3 in
11:33 5.0 °F 5.0 °F 997.9 in Calm     98 % 0.3 in
11:38 4.9 °F 5.0 °F 997.9 in Calm     98 % 0.3 in
11:44 4.9 °F 5.0 °F 997.9 in Calm     98 % 0.3 in
11:49 4.9 °F 5.0 °F 997.9 in Calm     98 % 0.3 in
11:54 4.8 °F 5.0 °F 997.9 in Calm     98 % 0.5 in
11:59 4.8 °F 5.0 °F 997.9 in Calm     98 % 0.5 in
12:04 4.8 °F 5.0 °F 997.9 in Calm     98 % 0.3 in
12:09 4.8 °F 5.0 °F 997.9 in Calm     98 % 0.3 in
12:14 4.8 °F 5.0 °F 998.9 in Calm     98 % 0.3 in
12:19 4.8 °F 5.0 °F 998.9 in Calm     98 % 0.3 in
12:24 4.8 °F 5.0 °F 998.9 in Calm     98 % 0.3 in
12:29 4.8 °F 5.0 °F 998.9 in Calm     98 % 0.3 in
12:34 4.8 °F 5.0 °F 998.9 in Calm     98 % 0.3 in
12:39 4.8 °F 5.0 °F 998.9 in Calm   4.0 mph 98 % 0.3 in
12:44 4.8 °F 5.0 °F 998.9 in Calm   5.8 mph 98 % 0.3 in
12:49 4.7 °F 5.0 °F 998.9 in Calm   6.4 mph 98 % 0.3 in
12:54 4.7 °F 5.0 °F 998.9 in Calm   6.4 mph 98 % 0.3 in
12:59 4.7 °F 5.0 °F 998.9 in Calm   5.5 mph 98 % 0.3 in
13:04 4.7 °F 5.0 °F 998.9 in Calm   3.2 mph 98 % 0.3 in
13:09 4.7 °F 5.0 °F 998.9 in NE 5.8 mph 5.8 mph 98 % 0.3 in
13:14 4.7 °F 5.0 °F 998.9 in NNE 1.4 mph 5.8 mph 98 % 0.3 in
13:19 4.6 °F 5.0 °F 998.9 in NE 4.0 mph 7.9 mph 98 % 0.3 in
13:24 4.6 °F 5.0 °F 998.9 in NE 9.0 mph 9.0 mph 98 % 0.3 in
13:29 4.6 °F 5.0 °F 998.9 in Calm   9.0 mph 98 % 0.3 in
13:34 4.6 °F 5.0 °F 998.9 in NE 6.9 mph 9.0 mph 98 % 0.3 in
13:39 4.6 °F 5.0 °F 998.9 in NE 6.9 mph 9.3 mph 98 % 0.3 in
13:44 4.5 °F 5.0 °F 999.9 in North 10.1 mph 10.1 mph 98 % 0.3 in
13:49 4.5 °F 5.0 °F 999.9 in Calm   10.1 mph 98 % 0.0 in
13:54 4.5 °F 5.0 °F 999.9 in NNE 1.4 mph 9.7 mph 98 % 0.0 in
14:00 4.5 °F 5.0 °F 999.9 in Calm   9.7 mph 98 % 0.0 in
14:05 4.4 °F 4.0 °F 999.9 in Calm   6.4 mph 98 % 0.0 in
14:10 4.4 °F 4.0 °F 999.9 in Calm   9.0 mph 98 % 0.0 in
14:15 4.4 °F 4.0 °F 1000.9 in NNE 2.6 mph 9.0 mph 98 % 0.0 in
14:20 4.4 °F 4.0 °F 1000.9 in NE 2.1 mph 10.1 mph 98 % 0.0 in
14:25 4.3 °F 4.0 °F 1000.9 in NNE 7.9 mph 11.9 mph 98 % 0.0 in
14:30 4.3 °F 4.0 °F 1000.9 in NNE 7.9 mph 11.9 mph 98 % 0.0 in
14:35 4.3 °F 4.0 °F 1000.9 in NE 8.7 mph 11.9 mph 98 % 0.0 in
14:40 4.3 °F 4.0 °F 1000.9 in North 7.9 mph 10.5 mph 98 % 0.0 in
14:45 4.2 °F 4.0 °F 1000.9 in NE 5.0 mph 11.6 mph 98 % 0.0 in
14:51 4.2 °F 4.0 °F 1000.9 in NNE 5.0 mph 11.6 mph 98 % 0.0 in
14:56 4.1 °F 4.0 °F 1000.9 in NNE 9.0 mph 10.5 mph 98 % 0.0 in
15:01 4.1 °F 4.0 °F 1000.9 in Calm   10.1 mph 98 % 0.0 in
15:06 4.1 °F 4.0 °F 1000.9 in NE 8.7 mph 10.1 mph 98 % 0.0 in
15:11 4.0 °F 4.0 °F 1000.9 in NE 2.6 mph 10.1 mph 98 % 0.0 in
15:16 4.0 °F 4.0 °F 1001.9 in NNW 9.3 mph 10.5 mph 98 % 0.0 in
15:21 4.0 °F 4.0 °F 1001.9 in ENE 5.5 mph 10.5 mph 98 % 0.0 in
15:26 3.9 °F 4.0 °F 1001.9 in NNE 4.3 mph 9.7 mph 98 % 0.0 in
15:31 3.9 °F 4.0 °F 1002.9 in NNE 4.3 mph 9.3 mph 98 % 0.0 in
15:36 3.8 °F 4.0 °F 1002.9 in NNE 4.7 mph 9.3 mph 98 % 0.0 in
15:41 3.8 °F 4.0 °F 1002.9 in North 2.1 mph 9.0 mph 98 % 0.0 in
15:46 3.8 °F 4.0 °F 1002.9 in North 6.9 mph 9.0 mph 98 % 0.0 in
15:51 3.8 °F 4.0 °F 1002.9 in NNE 8.7 mph 9.3 mph 98 % 0.0 in
15:56 3.8 °F 4.0 °F 1002.9 in North 6.1 mph 9.3 mph 98 % 0.0 in
16:01 3.7 °F 4.0 °F 1002.9 in North 7.9 mph 9.7 mph 98 % 0.0 in
16:06 3.7 °F 4.0 °F 1002.9 in NE 6.4 mph 12.2 mph 98 % 0.0 in
16:11 3.8 °F 4.0 °F 1002.9 in North 6.9 mph 12.2 mph 98 % 0.0 in
16:17 3.7 °F 4.0 °F 1002.9 in NNE 7.9 mph 11.9 mph 98 % 0.0 in
16:22 3.6 °F 4.0 °F 1002.9 in North 9.7 mph 13.0 mph 98 % 0.0 in
16:27 3.5 °F 4.0 °F 1002.9 in North 6.4 mph 16.9 mph 98 % 0.0 in
16:32 3.5 °F 4.0 °F 1003.9 in North 6.4 mph 16.9 mph 98 % 0.0 in
16:37 3.4 °F 3.0 °F 1003.9 in North 12.2 mph 12.6 mph 98 % 0.0 in
16:42 3.4 °F 3.0 °F 1003.9 in NE 10.5 mph 13.7 mph 98 % 0.0 in
16:47 3.4 °F 3.0 °F 1005.0 in North 13.7 mph 13.7 mph 98 % 0.0 in
16:52 3.4 °F 3.0 °F 1005.0 in NE 11.9 mph 13.7 mph 98 % 0.0 in
16:57 3.4 °F 3.0 °F 1005.0 in North 11.6 mph 13.7 mph 98 % 0.0 in
17:02 3.3 °F 3.0 °F 1003.9 in NNE 6.9 mph 11.9 mph 98 % 0.0 in
17:07 3.3 °F 3.0 °F 1003.9 in NNW 5.8 mph 11.6 mph 98 % 0.0 in
17:12 3.3 °F 3.0 °F 1003.9 in NNW 5.8 mph 7.6 mph 98 % 0.0 in
17:17 3.3 °F 3.0 °F 1005.0 in Calm   5.8 mph 98 % 0.0 in
17:22 3.3 °F 3.0 °F 1005.0 in North 1.4 mph 5.8 mph 98 % 0.0 in
17:28 3.3 °F 3.0 °F 1005.0 in Calm   1.4 mph 98 % 0.0 in
17:33 3.3 °F 3.0 °F 1005.0 in Calm   1.4 mph 98 % 0.0 in
17:38 3.3 °F 3.0 °F 1005.0 in Calm     98 % 0.0 in
17:43 3.3 °F 3.0 °F 1005.0 in Calm     98 % 0.0 in
17:48 3.3 °F 3.0 °F 1005.0 in Calm     98 % 0.0 in
17:53 3.2 °F 3.0 °F 1005.0 in Calm     98 % 0.0 in
17:58 3.3 °F 3.0 °F 1005.0 in Calm     98 % 0.0 in
18:03 3.3 °F 3.0 °F 1006.0 in Calm     98 % 0.0 in
18:08 3.3 °F 3.0 °F 1006.0 in Calm   2.1 mph 98 % 0.0 in
18:13 3.3 °F 3.0 °F 1006.0 in Calm   2.1 mph 98 % 0.0 in
18:18 3.3 °F 3.0 °F 1007.0 in Calm     98 % 0.0 in
18:23 3.3 °F 3.0 °F 1007.0 in Calm   2.1 mph 98 % 0.0 in
18:28 3.3 °F 3.0 °F 1007.0 in Calm   2.1 mph 98 % 0.0 in
18:33 3.4 °F 3.0 °F 1007.0 in Calm     98 % 0.0 in
18:38 3.4 °F 3.0 °F 1007.0 in NW 4.3 mph 4.3 mph 98 % 0.0 in
18:43 3.4 °F 3.0 °F 1007.0 in West 1.8 mph 4.3 mph 98 % 0.0 in
18:48 3.5 °F 4.0 °F 1006.0 in WNW 2.6 mph 5.8 mph 98 % 0.0 in
18:53 3.6 °F 4.0 °F 1006.0 in NNW 5.0 mph 5.8 mph 98 % 0.0 in
18:58 3.7 °F 4.0 °F 1006.0 in Calm   5.0 mph 98 % 0.0 in
19:03 3.8 °F 4.0 °F 1008.0 in North 6.4 mph 8.7 mph 98 % 0.3 in
19:08 3.8 °F 4.0 °F 1008.0 in WNW 2.6 mph 8.7 mph 98 % 0.3 in
19:13 3.8 °F 4.0 °F 1008.0 in Calm   6.4 mph 98 % 0.3 in
19:18 3.8 °F 4.0 °F 1008.0 in Calm   6.1 mph 98 % 0.3 in
19:23 3.9 °F 4.0 °F 1008.0 in Calm   4.0 mph 98 % 0.3 in
19:28 3.8 °F 4.0 °F 1008.0 in West 1.4 mph 1.8 mph 98 % 0.3 in
19:33 3.8 °F 4.0 °F 1009.0 in Calm   2.6 mph 98 % 0.3 in
19:38 3.8 °F 4.0 °F 1009.0 in Calm   2.6 mph 98 % 0.3 in
19:43 3.8 °F 4.0 °F 1009.0 in NW 2.1 mph 5.0 mph 98 % 0.3 in
19:48 3.7 °F 4.0 °F 1009.0 in Calm   5.5 mph 98 % 0.3 in
19:53 3.6 °F 4.0 °F 1009.0 in NW 1.8 mph 6.9 mph 98 % 0.3 in
19:58 3.6 °F 4.0 °F 1009.0 in Calm   6.9 mph 98 % 0.3 in
20:03 3.5 °F 4.0 °F 1009.0 in Calm   5.5 mph 98 % 0.0 in
20:08 3.5 °F 4.0 °F 1009.0 in NNW 6.1 mph 6.9 mph 98 % 0.0 in
20:13 3.5 °F 4.0 °F 1009.0 in Calm   7.6 mph 98 % 0.0 in
20:18 3.4 °F 3.0 °F 1009.0 in NW 1.4 mph 7.6 mph 98 % 0.0 in
20:23 3.3 °F 3.0 °F 1009.0 in Calm   6.1 mph 98 % 0.0 in
20:28 3.3 °F 3.0 °F 1009.0 in NW 4.3 mph 6.4 mph 98 % 0.0 in
20:33 3.3 °F 3.0 °F 1010.0 in Calm   6.4 mph 98 % 0.0 in
20:38 3.1 °F 3.0 °F 1010.0 in Calm   5.5 mph 98 % 0.0 in
20:43 3.1 °F 3.0 °F 1010.0 in Calm   4.3 mph 98 % 0.0 in
20:48 3.0 °F 3.0 °F 1010.0 in WNW 3.2 mph 5.5 mph 98 % 0.0 in
20:53 2.9 °F 3.0 °F 1010.0 in Calm   5.5 mph 98 % 0.0 in
20:58 2.8 °F 3.0 °F 1010.0 in Calm   4.3 mph 98 % 0.0 in
21:03 2.8 °F 3.0 °F 1010.0 in West 4.0 mph 6.1 mph 98 % 0.0 in
21:08 2.8 °F 3.0 °F 1010.0 in West 4.7 mph 6.4 mph 98 % 0.0 in
21:13 2.7 °F 3.0 °F 1011.1 in Calm   6.4 mph 98 % 0.0 in
21:18 2.6 °F 3.0 °F 1011.1 in Calm   6.1 mph 98 % 0.0 in
21:23 2.6 °F 3.0 °F 1011.1 in West 5.0 mph 6.1 mph 98 % 0.0 in
21:28 2.6 °F 3.0 °F 1011.1 in Calm   5.0 mph 98 % 0.0 in
21:33 2.5 °F 3.0 °F 1011.1 in Calm   5.0 mph 98 % 0.0 in
21:39 2.4 °F 3.0 °F 1011.1 in Calm   4.3 mph 98 % 0.0 in
21:44 2.3 °F 3.0 °F 1010.0 in Calm   6.4 mph 98 % 0.0 in
21:49 2.2 °F 2.0 °F 1010.0 in West 5.5 mph 6.4 mph 98 % 0.0 in
21:54 2.1 °F 2.0 °F 1010.0 in West 1.4 mph 6.4 mph 98 % 0.0 in
21:59 2.1 °F 2.0 °F 1010.0 in Calm   6.4 mph 98 % 0.0 in
22:04 2.1 °F 2.0 °F 1010.0 in West 6.1 mph 6.4 mph 98 % 0.0 in
22:09 2.1 °F 2.0 °F 1010.0 in Calm   7.9 mph 98 % 0.0 in
22:14 2.1 °F 2.0 °F 1011.1 in Calm   7.9 mph 98 % 0.0 in
22:19 2.1 °F 2.0 °F 1011.1 in West 2.6 mph 4.0 mph 98 % 0.0 in
22:24 2.0 °F 2.0 °F 1011.1 in Calm   4.7 mph 98 % 0.0 in
22:29 2.0 °F 2.0 °F 1011.1 in Calm   4.7 mph 98 % 0.0 in
22:34 2.0 °F 2.0 °F 1011.1 in Calm     98 % 0.0 in
22:39 1.9 °F 2.0 °F 1011.1 in West 6.1 mph 6.1 mph 98 % 0.0 in
22:44 1.9 °F 2.0 °F 1012.1 in West 5.5 mph 7.6 mph 98 % 0.0 in
22:49 1.9 °F 2.0 °F 1012.1 in Calm   7.6 mph 98 % 0.0 in
22:54 2.0 °F 2.0 °F 1012.1 in West 5.0 mph 6.9 mph 98 % 0.0 in
22:59 2.0 °F 2.0 °F 1012.1 in WNW 1.8 mph 6.9 mph 98 % 0.0 in
23:04 2.0 °F 2.0 °F 1012.1 in Calm   4.7 mph 98 % 0.0 in
23:09 1.9 °F 2.0 °F 1012.1 in Calm   4.3 mph 98 % 0.0 in
23:14 1.9 °F 2.0 °F 1013.1 in Calm   2.6 mph 98 % 0.0 in
23:19 1.9 °F 2.0 °F 1013.1 in Calm     98 % 0.0 in
23:24 1.8 °F 2.0 °F 1013.1 in Calm     98 % 0.0 in
23:29 1.7 °F 2.0 °F 1013.1 in Calm   2.6 mph 98 % 0.0 in
23:34 1.6 °F 2.0 °F 1013.1 in WNW 5.0 mph 5.0 mph 98 % 0.0 in
23:39 1.6 °F 2.0 °F 1013.1 in Calm   5.0 mph 98 % 0.0 in
23:44 1.5 °F 2.0 °F 1013.1 in Calm   5.0 mph 98 % 0.0 in
23:49 1.4 °F 1.0 °F 1013.1 in Calm   4.3 mph 98 % 0.0 in
23:54 1.4 °F 1.0 °F 1013.1 in Calm   4.3 mph 98 % 0.0 in
23:59 1.4 °F 1.0 °F 1014.1 in Calm   3.2 mph 98 % 0.0 in
Le Gheer Warneton
Courtoisie de Weather Underground - 2.25 mb

Mise a jour : 18/02/2018 20:55:11
Généré par Cumulus 1.9.4 (1099)